Location: D�rnast
(49.6426°N, 11.9755°E)
Time: 02:57:20
(UTC+00:00)

BlueWalker 3 - Pass Details

Date: 09 December 2022
Orbit: 499 x 517 km, 53.2° (Epoch: 26 January)

Event Time Altitude Azimuth Distance (km) Brightness Sun altitude
Rises 18:40:29 0° 285° (WNW) 2,624 6.6 -32.6°
Reaches altitude 10° 18:43:48 10° 255° (WSW) 1,726 5.4 -33.1°
Enters shadow 18:44:49 12° 240° (WSW) 1,598 5.0 -33.3°
